This is the latest recevied weather packets stored in our database for station/object JH7UAX-10. If no packets are shown the sender has not sent any weather packets the latest 10 day(s).
| Time | Temp. | Humidity | Pressure | Rain* | Wind** | Luminosity | Snow |
|---|---|---|---|---|---|---|---|
| 1777922579 | 7.22° C | 82% | 1026.4 hPa | 0 mm | - | - | - |
| 1777922105 | 7.22° C | 82% | 1026.3 hPa | 0 mm | - | - | - |
| 1777921679 | 7.22° C | 82% | 1026.1 hPa | 0 mm | - | - | - |
| 1777921205 | 7.78° C | 82% | 1025.9 hPa | 0 mm | - | - | - |
| 1777920779 | 7.78° C | 82% | 1025.8 hPa | 0 mm | - | - | - |
| 1777919879 | 7.78° C | 81% | 1025.4 hPa | 0 mm | - | - | - |
| 1777919404 | 7.78° C | 80% | 1025.2 hPa | 0 mm | - | - | - |
| 1777918978 | 7.78° C | 79% | 1024.9 hPa | 0 mm | - | - | - |
| 1777918506 | 7.78° C | 77% | 1024.8 hPa | 0 mm | - | - | - |
| 1777918078 | 7.78° C | 77% | 1024.4 hPa | 0 mm | - | - | - |
| 1777917606 | 7.78° C | 76% | 1024.2 hPa | 0 mm | - | - | - |
| 1777917178 | 7.78° C | 77% | 1023.9 hPa | 0 mm | - | - | - |
| 1777916705 | 7.78° C | 77% | 1023.7 hPa | 0 mm | - | - | - |
| 1777916278 | 8.33° C | 77% | 1023.3 hPa | 0 mm | - | - | - |
| 1777915379 | 8.33° C | 79% | 1022.7 hPa | 0 mm | - | - | - |
| 1777914479 | 8.33° C | 79% | 1022.6 hPa | 0 mm | - | - | - |
| 1777913579 | 8.33° C | 81% | 1022.2 hPa | 0 mm | - | - | - |
| 1777913105 | 7.78° C | 81% | 1021.8 hPa | 0 mm | - | - | - |
| 1777912679 | 7.78° C | 84% | 1021.7 hPa | 0 mm | - | - | - |
| 1777911778 | 8.33° C | 82% | 1021.6 hPa | 0 mm | - | - | - |
| 1777910878 | 8.33° C | 82% | 1021.2 hPa | 0 mm | - | - | - |
| 1777910406 | 7.78° C | 85% | 1021.2 hPa | 0 mm | - | - | - |
| 1777909978 | 7.78° C | 86% | 1021 hPa | 0 mm | - | - | - |
| 1777909506 | 7.78° C | 85% | 1021 hPa | 0.25 mm | - | - | - |
| 1777909078 | 7.78° C | 86% | 1020.5 hPa | 0.51 mm | - | - | - |
* Rain latest hour (hover to see other rain measurements)
** Current wind speed in m/s (hover to see current wind gust speed)